Regional Weather Roundup
Issued by NWS Columbia, SC

Home | Current Version | Previous Version | Text Only | Print | Product List | Glossary On
Versions: 1 2 3 4 5 6 7 8 9 10 11 12 13 14 15 16 17 18 19 20 21 22 23 24 25 26 27 28 29 30 31 32 33 34 35 36 37 38 39 40 41 42 43 44 45 46 47 48 49 50
000
ASUS42 KCAE 060010
RWRCAE
REGIONAL WEATHER ROUNDUP
NATIONAL WEATHER SERVICE COLUMBIA SC
700 PM EST THU MAR 05 2015

NOTE: "FAIR" INDICATES FEW OR NO CLOUDS BELOW 12,000 FEET WITH NO
SIGNIFICANT WEATHER AND/OR OBSTRUCTIONS TO VISIBILITY.

NOT ALL STATIONS ARE QUALITY CONTROLLED BY THE NATIONAL
WEATHER SERVICE. USE DATA WITH CAUTION...ESPECIALLY
DEWPOINT OBSERVATIONS.

SCZ001>056-GAZ040-063>065-077-060100-
...UPSTATE SOUTH CAROLINA...

CITY           SKY/WX    TMP DP  RH WIND       PRES   REMARKS
ANDERSON       CLOUDY    49  41  74 NW5       30.07R
6HR MIN TEMP:  49; 6HR MAX TEMP:  58; 6HR PCP: TRACE;

LIBERTY        CLOUDY    46  43  89 MISG      30.10R
6HR MIN TEMP:  46; 6HR MAX TEMP:  65;

SPARTANBURG    DRIZZLE   45 N/A N/A NE18G26   30.17R
CLEMSON        CLOUDY    51  41  68 NE3       30.10R
6HR MIN TEMP:  50; 6HR MAX TEMP:  60; 6HR PCP: TRACE;

GREENVILLE     CLOUDY    40  33  76 N14G22    30.14R WCI  32
6HR MIN TEMP:  40; 6HR MAX TEMP:  61; 6HR PCP:  0.05;

GREENWOOD      CLOUDY    53  49  86 NE12G21   30.11R
6HR MIN TEMP:  53; 6HR MAX TEMP:  61; 6HR PCP: TRACE;

GREER          CLOUDY    42  35  76 N13G20    30.13R
6HR MIN TEMP:  42; 6HR MAX TEMP:  59; 6HR PCP:  0.05;

ROCK HILL      LGT RAIN  41  38  89 NE10      30.17R
6HR MIN TEMP:  41; 6HR MAX TEMP:  67; 6HR PCP:  0.39;

CHESTER        LGT RAIN  45  43  93 N16G22    30.15R
LAURENS        DRIZZLE   46  46 100 NE10G18   30.11R


...CENTRAL SOUTH CAROLINA...

CITY           SKY/WX    TMP DP  RH WIND       PRES   REMARKS
COLUMBIA APT   CLOUDY    52  48  86 NE10G18   30.06R
6HR MIN TEMP:  52; 6HR MAX TEMP:  81; 6HR PCP:  0.08;

COLUMBIA OWENS CLOUDY    50  46  86 MISG      30.08R
6HR MIN TEMP:  50; 6HR MAX TEMP:  80; 6HR PCP:  0.14;

DARLINGTON     CLOUDY    43  39  87 NE15G23   30.13R
6HR MIN TEMP:  43; 6HR MAX TEMP:  77; 6HR PCP:  0.19;

FLORENCE       LGT RAIN  44  41  89 N14       30.09R
6HR MIN TEMP:  44; 6HR MAX TEMP:  82; 6HR PCP:  0.33;

MCENTIRE ANGB  LGT RAIN  50  46  87 N9        30.06R
                                      6HR PCP:  0.23;

ORANGEBURG     LGT RAIN  62  58  86 NW6       30.02R
6HR MIN TEMP:  62; 6HR MAX TEMP:  83; 6HR PCP:  0.16;

SUMTER SHAW    LGT RAIN  46  45  93 N15       30.06R
6HR MIN TEMP:  47; 6HR MAX TEMP:  81; 6HR PCP:  0.44;

NEWBERRY       LGT RAIN  46  46 100 NE16G24   30.14R
AIKEN          CLOUDY    59  52  77 W8G16     30.07R
BARNWELL       MOCLDY    61  61 100 W6        30.03R
MANNING        LGT RAIN N/A N/A N/A N12G17    30.05R
CAMDEN         CLOUDY    45  43  93 NE9G21    30.11S
LANCASTER      LGT RAIN  41  41 100 NE8G18    30.14R
WINNSBORO      CLOUDY    46  45  93 N8G20     30.08R


...EASTERN AND COASTAL SOUTH CAROLINA...

CITY           SKY/WX    TMP DP  RH WIND       PRES   REMARKS
MYRTLE BEACH   MOCLDY    48  45  87 NE6       30.07R
N MYRTLE BCH   LGT RAIN  46  43  89 N5        30.05R
6HR MIN TEMP:  46; 6HR MAX TEMP:  67; 6HR PCP:  0.04;

CONWAY         LGT SNOW  46  46 100 N3        30.08R
MARION         LGT RAIN  43  43 100 N10       30.10R
HARTSVILLE     CLOUDY    41  41 100 NE12G23   30.10R
FLORENCE       LGT RAIN  44  41  89 N14       30.09R
6HR MIN TEMP:  44; 6HR MAX TEMP:  82; 6HR PCP:  0.33;

DARLINGTON     CLOUDY    43  39  87 NE15G23   30.13R
6HR MIN TEMP:  43; 6HR MAX TEMP:  77; 6HR PCP:  0.19;

CHARLESTON APT LGT RAIN  65  64  97 W3        30.03R FOG
6HR MIN TEMP:  65; 6HR MAX TEMP:  80; 6HR PCP:  0.08;

MOUNT PLEASANT RAIN      66  64  94 NW7       30.04R
WALTERBORO     DRIZZLE   64  64 100 W5        30.04R
BEAUFORT       LGT RAIN  65  63  93 W8        30.04R FOG
6HR MIN TEMP:  64; 6HR MAX TEMP:  83; 6HR PCP:  0.12;



...EASTERN GEORGIA...

CITY           SKY/WX    TMP DP  RH WIND       PRES   REMARKS
AUGUSTA BUSH F CLOUDY    60  54  80 NW16      30.05R
6HR MIN TEMP:  60; 6HR MAX TEMP:  80; 6HR PCP:  0.07;

AUGUSTA DANIEL CLOUDY    60  52  74 NW12      30.06R
6HR MIN TEMP:  60; 6HR MAX TEMP:  80; 6HR PCP:  0.09;

THOMSON        CLOUDY    53  48  83 W13       30.14R
6HR MIN TEMP:  53; 6HR MAX TEMP:  64;

WASHINGTON     FAIR      48  45  87 NW8       30.09S
CLAXTON        LGT RAIN  63  61  94 W8        30.06R
SYLVANIA       CLOUDY    62  61  99 W7        30.06R
6HR MIN TEMP:  62; 6HR MAX TEMP:  83;

STATESBORO     DRIZZLE   61  61 100 W8        30.06R
6HR MIN TEMP:  61; 6HR MAX TEMP:  83;

SAVANNAH       HVY RAIN  64  62  93 W8        30.05R FOG
6HR MIN TEMP:  64; 6HR MAX TEMP:  84; 6HR PCP:  0.13;



...SOUTHERN NORTH CAROLINA...

CITY           SKY/WX    TMP DP  RH WIND       PRES   REMARKS
CHARLOTTE      LGT RAIN  40  35  83 NE16G26   30.17R WCI  31
6HR MIN TEMP:  40; 6HR MAX TEMP:  47; 6HR PCP:  0.32;

MONROE         LGT RAIN  41  37  86 NE18      30.15R
6HR MIN TEMP:  41; 6HR MAX TEMP:  67; 6HR PCP:  0.47;

WADESBORO      DRIZZLE   41  38  90 N13G20    30.16S
6HR MIN TEMP:  41; 6HR MAX TEMP:  71; 6HR PCP:  0.44;

ROCKINGHAM     LGT RAIN  39  37  93 NE9G18    30.15R WCI  33
6HR MIN TEMP:  39; 6HR MAX TEMP:  71; 6HR PCP:  0.50;

RUTHERFORDTON  DRIZZLE   37  35  89 NE9       30.17R WCI  31
6HR MIN TEMP:  37; 6HR MAX TEMP:  49; 6HR PCP:  0.06;

ASHEVILLE      CLOUDY    31  23  72 N31G43    30.18R WCI  16
6HR MIN TEMP:  31; 6HR MAX TEMP:  41; 6HR PCP:  0.01;


$$


USA.gov is the U.S. government's official web portal to all federal, state and local government web resources and services.